User: anonymous   Login
Location: Unspecified
(0.0000°N, 0.0000°E)
Time: 02:49:58
(UTC+00:00)
Language:

EGG - Orbit

View from above orbital plane
View from above orbital plane
View from above satellite
View from above satellite

Ground track
Ground track

The orbit data is extracted from the following two-line orbital elements,

1 41933U 98067KV  17147.35731198 +.00011088 +00000-0 +14525-3 0  9995
2 41933 051.6378 139.4892 0004529 184.4172 175.6782 15.59128074020296
Epoch (UTC): 27 May 2017 08:34:31
Eccentricity: 0.0004529
inclination: 51.6378°
perigee height: 387 km
apogee height: 393 km
right ascension of ascending node: 139.4892°
argument of perigee: 184.4172°
revolutions per day: 15.59128074
mean anomaly at epoch: 175.6782°
orbit number at epoch: 2029

The dashed part of the orbit path shows where the satellite is in the earth's shadow,  

DLR